Regional Weather Roundup
Issued by NWS

Home | Current Version | Previous Version | Text Only | Print | Product List | Glossary On
Versions: 1 2 3 4 5 6 7 8 9 10 11 12 13 14 15 16 17 18 19 20 21 22 23 24 25 26 27 28 29 30 31 32 33 34 35 36 37 38 39 40 41 42 43 44 45 46 47 48 49 50
000
ASCA42 TJSJ 281310
RWRPR
PUERTO RICO/U.S. VIRGIN ISLANDS HOURLY WEATHER ROUNDUP
NATIONAL WEATHER SERVICE SAN JUAN PR
900 AM AST TUE FEB 28 2017

PRZ001>002-007>008-010-281400-
PUERTO RICO

CITY           SKY/WX    TMP DP  RH WIND       PRES   REMARKS
SAN JUAN LMM   MOSUNNY   79  72  78 E13       30.13R
AGUADILLA      MOSUNNY   75  70  83 E9G16     30.13S
CEIBA          MOSUNNY   82  72  69 E9        30.15R
$$

VIZ001>002-281400-
U.S. VIRGIN ISLANDS

CITY           SKY/WX    TMP DP  RH WIND       PRES   REMARKS
CHARLOTTE AMA  SUNNY     81  70  69 E17G24    30.11R
CHRISTIANSTED  MOSUNNY   82  70  65 NE12      30.11R
$$

HOURLY WEATHER ROUNDUP FOR THE NEWS MEDIA

CITY           SKY/WX    TMP DP  RH WIND       PRES   REMARKS
ORLANDO        FOG       69  68  96 SE8       30.27R VSB 1/4
NEW YORK       CLOUDY    46  42  86 E5        30.37R
NEWARK         CLOUDY    48  37  65 CALM      30.36R
CHICAGO        CLOUDY    50  45  83 S13G22    29.79F
HARTFORD       CLOUDY    42  38  85 CALM      30.41F
BOSTON         CLOUDY    43  34  70 CALM      30.41S
DALLAS         CLOUDY    71  65  81 S10       29.90R HAZE
PHILADELPHIA   CLOUDY    46  38  73 VRB3      30.34R
LOS ANGELES    PTCLDY    52  34  50 NW6       29.95R
WASHINGTON DC  MOSUNNY   43  36  76 CALM      30.30S


USA.gov is the U.S. government's official web portal to all federal, state and local government web resources and services.